• Processing (Info)

  • MPEC 2006-Q04 : 2006 PF1

    The following Minor Planet Electronic Circular may be linked-to from your own Web pages, but must not otherwise be redistributed electronically.

    A form allowing access to any MPEC is at the bottom of this page.


    Read MPEC 2006-Q03 Read MPEC 2006-Q05


    M.P.E.C. 2006-Q04                                Issued 2006 Aug. 16, 10:58 UT
    
         The Minor Planet Electronic Circulars contain information on unusual
             minor planets and routine data on comets.  They are published
       on behalf of Commission 20 of the International Astronomical Union by the
              Minor Planet Center, Smithsonian Astrophysical Observatory,
                              Cambridge, MA 02138, U.S.A.
    
                      Supported in part by the Brinson Foundation
                      Supported in part by the TABASGO Foundation
                 Prepared using the Tamkin Foundation Computer Network
    
                                  MPC@CFA.HARVARD.EDU
              URL http://cfa-www.harvard.edu/iau/mpc.html  ISSN 1523-6714
    
                                       2006 PF1
    
    Observations:
         K06P01F* C2006 08 15.70664 23 39 00.57 -27 53 02.9          18.1 V EQ004E12
         K06P01F  C2006 08 15.73409 23 39 02.37 -27 55 53.9          17.9 V EQ004E12
         K06P01F  C2006 08 15.74784 23 39 03.24 -27 57 19.8          18.1 V EQ004E12
         K06P01F  C2006 08 15.75932 23 39 03.99 -27 58 31.6          18.3 V EQ004E12
         K06P01F  C2006 08 15.75985 23 39 03.99 -27 58 34.6          18.2 V EQ004E12
         K06P01F  C2006 08 15.76040 23 39 04.06 -27 58 38.1          18.3 V EQ004E12
         K06P01F  C2006 08 15.76093 23 39 04.14 -27 58 41.6          18.1 V EQ004E12
         K06P01F  C2006 08 15.76971 23 39 04.68 -27 59 36.6          18.1 V EQ004E12
         K06P01F  C2006 08 15.78034 23 39 05.40 -28 00 42.7          18.3 V EQ004E12
         K06P01F  C2006 08 15.79098 23 39 06.15 -28 01 49.4          18.3 V EQ004E12
         K06P01F  C2006 08 15.80168 23 39 06.87 -28 02 55.8          18.4 V EQ004E12
         K06P01F  C2006 08 16.19563 23 39 40.14 -28 45 35.6          18.0 R EQ004I77
         K06P01F  C2006 08 16.20863 23 39 41.00 -28 47 01.3          17.7 R EQ004I77
         K06P01F  C2006 08 16.21312 23 39 41.31 -28 47 31.2          17.8 R EQ004I77
         K06P01F  C2006 08 16.25737 23 39 46.19 -28 52 49.1          18.4 R EQ004734
         K06P01F  C2006 08 16.25906 23 39 46.24 -28 52 59.3          17.9 R EQ004734
         K06P01F  C2006 08 16.26074 23 39 46.42 -28 53 10.8          18.0 R EQ004734
         K06P01F  C2006 08 16.31135 23 39 49.95 -28 58 51.3          18.0 R EQ004649
         K06P01F  C2006 08 16.31312 23 39 50.09 -28 59 03.9          18.2 R EQ004649
         K06P01F  C2006 08 16.31490 23 39 50.19 -28 59 15.8          17.9 R EQ004649
         K06P01F  C2006 08 16.31668 23 39 50.34 -28 59 27.5          17.9 R EQ004649
    
    Observer details:
    649 Powell Observatory, Louisburg.  Observer R. Trentman.  0.75-m Newtonian
        reflector + CCD.
    734 Farpoint Observatory.  Observer G. Hug.  0.7-m reflector + CCD.
    E12 Siding Spring Survey.  Observer G. J. Garradd.  Measurers E. C. Beshore,
        E. J. Christensen, G. J. Garradd, A. R. Gibbs, A. D. Grauer, R. E. Hill,
        R. A. Kowalski, S. M. Larson, R. H. McNaught.  0.5-m Uppsala Schmidt + CCD.
    I77 CEAMIG-REA Observatory, Belo Horizonte.  Observers C. Jacques, E. Pimentel.
        Measurer C. Jacques.  0.30-m f/3.0 Schmidt-Cassegrain + CCD.
    
    Orbital elements:
    2006 PF1                                                 Earth MOID = 0.1188 AU
    Epoch 2006 Sept. 22.0 TT = JDT 2454000.5                MPC
    M 354.25765              (2000.0)            P               Q
    n   0.30981187     Peri.  333.62729     -0.19074572     -0.96177738
    a   2.1630705      Node   126.73561     +0.93839556     -0.23740351
    e   0.8757543      Incl.   14.19110     +0.28814900     +0.13646923
    P   3.18           H   19.5           G   0.15           U   9
    Residuals in seconds of arc
    060815 E12  0.6+  0.2-    060815 E12  0.0   0.3-    060816 734  0.8+  0.5-
    060815 E12  0.8+  0.0     060815 E12  0.0   0.0     060816 734  0.2-  0.7+
    060815 E12  0.3+  0.1-    060815 E12  0.3+  0.2-    060816 734  0.6+  0.5+
    060815 E12  0.1+  0.2-    060815 E12  0.1+  0.4+    060816 649  0.2+  0.3+
    060815 E12  0.4-  0.1+    060816 I77  0.2+  0.6-    060816 649  0.4+  0.4-
    060815 E12  0.1+  0.0     060816 I77  0.0   0.2-    060816 649  0.0   0.3-
    060815 E12  0.7+  0.2-    060816 I77  0.2+  0.3-    060816 649  0.3+  0.1-
    
    Ephemeris:
    2006 PF1                 a,e,i = 2.16, 0.88, 14                  q = 0.2688
    Date    TT    R. A. (2000) Decl.     Delta      r     Elong.  Phase     V
    2006 08 13    23 35.91   -23 50.0    0.317    1.295   149.0    23.8    18.7
    2006 08 15    23 38.13   -26 42.3    0.284    1.265   149.2    24.2    18.4
    2006 08 17    23 40.81   -30 18.5    0.251    1.234   148.5    25.4    18.1
    2006 08 19    23 44.26   -34 54.7    0.221    1.202   146.5    27.7    17.9
    2006 08 21    23 49.06   -40 53.4    0.192    1.170   142.7    31.6    17.6
    2006 08 23    23 56.58   -48 44.8    0.166    1.138   136.4    37.8    17.4
    2006 08 25    00 10.72   -59 01.4    0.145    1.105   127.2    46.8    17.3
    2006 08 27    00 48.26   -71 49.2    0.130    1.071   114.5    59.1    17.3
    2006 08 29    04 38.11   -83 21.6    0.124    1.037    99.2    74.0    17.6
    2006 08 31    09 53.32   -74 04.7    0.127    1.002    83.2    89.6    18.2
    2006 09 02    10 40.78   -60 33.9    0.139    0.967    68.6   103.7    19.0
    
    Kyle E. Smalley              (C) Copyright 2006 MPC           M.P.E.C. 2006-Q04
    

    Read MPEC 2006-Q03 Read MPEC 2006-Q05


    MPEC number:

    Enter an MPEC number in one of the following forms:

    • 1997-B01 (the full form)
    • J97B01 (the packed version of the full form)
    • B01 (the abbreviated form)